Simultaneous Nadir Overpasses (SNOs) Predictions

Prediction of SNOs between METOP-A and TERRA Satellite Orbit:

Table of predicted SNOs for the next 14.0 days since TLE Epoch: 4/6/2017
Index Date (METOP-A) Time (METOP-A) Lat,Lon (METOP-A) SZA (METOP-A ) Date (TERRA) Time (TERRA) Lat,Lon (TERRA) SZA (TERRA ) Distance(km) Time Diff (sec)
1 04/07/2017 15:56:46 -81.34, 168.87 102.90 04/07/2017 15:56:58 -81.34, 168.78 102.90 1.47 12
2 04/07/2017 16:47:26 81.34, -23.63 77.12 04/07/2017 16:46:24 81.34, -23.48 77.11 2.49 62
3 04/10/2017 11:31:08 -81.34,-124.71 103.91 04/10/2017 11:31:13 -81.33,-124.90 103.93 3.21 5
4 04/10/2017 12:21:48 81.34, 42.76 76.10 04/10/2017 12:20:39 81.34, 42.82 76.07 0.95 69
5 04/13/2017 06:14:50 81.33, 133.86 75.04 04/13/2017 06:16:01 81.33, 133.78 75.06 1.33 71
6 04/13/2017 07:05:30 -81.34, -58.30 104.91 04/13/2017 07:05:27 -81.34, -58.24 104.90 1.41 3
7 04/16/2017 01:49:11 81.33,-159.78 74.05 04/16/2017 01:50:14 81.33,-159.61 74.11 3.01 63
8 04/16/2017 02:39:51 -81.34, 8.08 105.90 04/16/2017 02:39:41 -81.33, 8.00 105.91 1.37 10
9 04/18/2017 21:23:33 81.33, -93.44 73.08 04/18/2017 21:24:29 81.32, -93.42 73.11 0.89 56




NCC Satellite Simultaneous Nadir Overpasses (SNOs) Prediction Service
